Terminal Aerodrome Forecast
Issued by NWS Binghamton, NY

Home | Current Version | Previous Version | Text Only | Print | Product List | Glossary On
Versions: 1 2 3 4 5 6 7 8 9 10 11 12 13
000
FTUS41 KBGM 010531
TAFSYR
TAF
KSYR 010531Z 0106/0206 13009KT P6SM BKN090 WS020/20040KT
     FM011400 17008KT P6SM SCT060
     FM011600 18009KT P6SM BKN060
     FM012200 17011G20KT 3SM -TSRA OVC050CB
      TEMPO 0122/0124 1SM TSRA BR
     FM020100 29007KT P6SM -SHRA OVC035=

USA.gov is the U.S. government's official web portal to all federal, state and local government web resources and services.